QPF
0.07 0.09 0.12 0.10 0.09 0.07 0.08 0.10 0.10 0.08 0.12 0.15 0.12 0.10 0.06 0.05 0.09 0.07 0.05 0.04 0.03 0.03 0.03 0.03 0.03 0.02 0.02 0.03 0.04 0.06 0.07 0.06 0.07 0.07 0.07 0.06 0.06 0.06 0.05 0.05 0.05 0.05 0.05
0.07 0.08 0.08 0.06 0.05 0.06 0.06 0.10 0.13 0.13 0.10 0.11 0.12 0.11 0.06 0.03 0.07 0.10 0.09 0.08 0.04 0.03 0.03 0.04 0.03 0.02 0.02 0.02 0.03 0.06 0.07 0.07 0.09 0.08 0.06 0.05 0.05 0.05 0.05 0.04 0.05 0.05 0.05
0.02 0.04 0.04 0.06 0.05 0.05 0.05 0.06 0.08 0.12 0.13 0.11 0.13 0.16 0.10 0.08 0.06 0.07 0.07 0.06 0.04 0.04 0.03 0.04 0.04 0.03 0.03 0.03 0.03 0.04 0.04 0.06 0.07 0.07 0.06 0.04 0.03 0.04 0.05 0.03 0.03 0.03 0.05
0.02 0.02 0.03 0.03 0.04 0.04 0.04 0.05 0.06 0.10 0.13 0.16 0.15 0.18 0.17 0.15 0.08 0.05 0.05 0.05 0.04 0.03 0.04 0.03 0.03 0.03 0.03 0.03 0.03 0.03 0.04 0.05 0.05 0.07 0.07 0.06 0.04 0.04 0.04 0.02 0.02 0.03 0.04
0.02 0.02 0.04 0.04 0.05 0.04 0.04 0.05 0.05 0.07 0.11 0.10 0.09 0.09 0.10 0.14 0.10 0.07 0.08 0.05 0.04 0.04 0.04 0.03 0.02 0.02 0.02 0.03 0.03 0.03 0.04 0.06 0.05 0.05 0.05 0.06 0.06 0.05 0.03 0.02 0.03 0.04 0.04
0.03 0.03 0.05 0.07 0.06 0.05 0.05 0.05 0.05 0.06 0.10 0.11 0.08 0.07 0.06 0.07 0.07 0.06 0.05 0.03 0.04 0.05 0.03 0.02 0.02 0.02 0.03 0.03 0.03 0.05 0.05 0.04 0.05 0.05 0.03 0.03 0.03 0.03 0.02 0.02 0.02 0.03 0.02
0.03 0.04 0.06 0.14 0.13 0.13 0.09 0.08 0.07 0.06 0.08 0.12 0.11 0.07 0.07 0.07 0.07 0.05 0.03 0.02 0.03 0.03 0.02 0.01 0.01 0.02 0.02 0.03 0.05 0.06 0.05 0.05 0.04 0.03 0.03 0.04 0.04 0.03 0.02 0.01 0.01 0.01 0.02
0.04 0.04 0.03 0.05 0.12 0.15 0.12 0.09 0.06 0.06 0.06 0.09 0.12 0.10 0.08 0.07 0.07 0.07 0.04 0.03 0.02 0.02 0.02 0.01 0.02 0.02 0.03 0.04 0.04 0.04 0.04 0.04 0.03 0.02 0.01 0.01 0.01 0.01 0.01 0.01 0.01 0.02 0.03
0.03 0.04 0.03 0.02 0.04 0.06 0.04 0.04 0.05 0.04 0.04 0.07 0.11 0.13 0.10 0.07 0.06 0.05 0.03 0.03 0.02 0.02 0.02 0.02 0.02 0.03 0.04 0.03 0.03 0.02 0.02 0.02 0.01 0.01 0.01 0.01 0.00 0.01 0.01 0.01 0.02 0.03 0.05
0.03 0.03 0.03 0.02 0.02 0.02 0.02 0.03 0.03 0.03 0.04 0.06 0.09 0.12 0.09 0.06 0.05 0.03 0.02 0.02 0.02 0.02 0.02 0.03 0.03 0.03 0.04 0.04 0.03 0.02 0.02 0.01 0.01 0.02 0.01 0.01 0.01 0.01 0.01 0.01 0.01 0.02 0.05
0.03 0.02 0.03 0.02 0.01 0.02 0.03 0.03 0.03 0.03 0.04 0.04 0.05 0.08 0.07 0.05 0.03 0.02 0.01 0.01 0.01 0.02 0.04 0.05 0.04 0.03 0.03 0.04 0.03 0.03 0.02 0.02 0.01 0.02 0.02 0.01 0.01 0.01 0.01 0.01 0.01 0.02 0.04
0.02 0.01 0.02 0.02 0.02 0.02 0.03 0.03 0.03 0.03 0.03 0.04 0.05 0.08 0.06 0.03 0.02 0.01 0.01 0.01 0.01 0.02 0.02 0.03 0.03 0.03 0.03 0.04 0.03 0.03 0.03 0.02 0.01 0.01 0.01 0.01 0.01 0.01 0.01 0.02 0.02 0.02 0.02
0.02 0.01 0.02 0.02 0.03 0.02 0.02 0.02 0.02 0.02 0.02 0.03 0.03 0.03 0.03 0.02 0.02 0.02 0.03 0.03 0.02 0.02 0.03 0.03 0.03 0.04 0.04 0.04 0.04 0.03 0.02 0.02 0.01 0.01 0.02 0.01 0.01 0.01 0.01 0.01 0.01 0.02 0.02
0.02 0.02 0.02 0.03 0.04 0.03 0.03 0.02 0.02 0.02 0.02 0.02 0.02 0.01 0.01 0.02 0.03 0.03 0.03 0.03 0.04 0.04 0.03 0.03 0.04 0.04 0.05 0.05 0.04 0.03 0.02 0.02 0.01 0.01 0.01 0.01 0.01 0.01 0.01 0.02 0.02 0.02 0.03
0.02 0.02 0.02 0.04 0.04 0.04 0.04 0.02 0.02 0.02 0.01 0.01 0.01 0.01 0.02 0.02 0.02 0.03 0.02 0.03 0.03 0.04 0.03 0.03 0.02 0.02 0.03 0.03 0.03 0.03 0.03 0.03 0.02 0.02 0.01 0.01 0.01 0.02 0.03 0.03 0.03 0.04 0.04
0.02 0.02 0.02 0.03 0.03 0.04 0.03 0.02 0.02 0.01 0.01 0.00 0.01 0.01 0.01 0.01 0.02 0.01 0.01 0.02 0.01 0.02 0.03 0.03 0.01 0.01 0.01 0.02 0.03 0.03 0.03 0.02 0.02 0.01 0.01 0.01 0.01 0.01 0.02 0.03 0.03 0.04 0.03
0.01 0.02 0.02 0.02 0.02 0.02 0.02 0.02 0.01 0.01 0.01 0.00 0.01 0.01 0.01 0.01 0.02 0.02 0.01 0.01 0.02 0.02 0.02 0.01 0.01 0.01 0.01 0.01 0.01 0.02 0.03 0.03 0.03 0.02 0.02 0.01 0.02 0.02 0.02 0.02 0.03 0.03 0.02
0.01 0.02 0.03 0.02 0.02 0.02 0.02 0.01 0.01 0.01 0.01 0.01 0.00 0.00 0.01 0.01 0.02 0.02 0.02 0.02 0.02 0.03 0.04 0.02 0.01 0.01 0.01 0.01 0.01 0.02 0.02 0.02 0.03 0.02 0.02 0.02 0.02 0.02 0.02 0.03 0.03 0.02 0.01
0.02 0.02 0.02 0.02 0.02 0.02 0.02 0.02 0.02 0.02 0.01 0.01 0.01 0.01 0.01 0.01 0.02 0.03 0.04 0.04 0.03 0.03 0.03 0.03 0.03 0.02 0.01 0.02 0.02 0.02 0.02 0.02 0.01 0.01 0.01 0.02 0.02 0.02 0.03 0.04 0.04 0.03 0.02
0.03 0.02 0.02 0.02 0.02 0.02 0.02 0.02 0.02 0.02 0.02 0.02 0.01 0.02 0.02 0.03 0.03 0.04 0.05 0.05 0.05 0.05 0.05 0.03 0.03 0.03 0.03 0.03 0.03 0.02 0.01 0.01 0.01 0.01 0.01 0.01 0.01 0.01 0.02 0.03 0.03 0.03 0.03
0.04 0.04 0.03 0.03 0.02 0.01 0.02 0.02 0.02 0.02 0.02 0.02 0.02 0.02 0.03 0.04 0.04 0.05 0.05 0.06 0.07 0.08 0.07 0.05 0.03 0.04 0.04 0.04 0.03 0.03 0.02 0.01 0.01 0.01 0.01 0.01 0.01 0.01 0.01 0.01 0.02 0.02 0.03
0.05 0.05 0.05 0.03 0.02 0.02 0.02 0.03 0.03 0.03 0.03 0.02 0.02 0.02 0.02 0.03 0.02 0.02 0.02 0.04 0.05 0.06 0.07 0.05 0.03 0.03 0.04 0.04 0.03 0.03 0.02 0.02 0.01 0.01 0.01 0.01 0.01 0.01 0.01 0.01 0.01 0.01 0.02
0.04 0.03 0.03 0.02 0.03 0.03 0.02 0.02 0.02 0.02 0.02 0.02 0.02 0.01 0.01 0.01 0.02 0.01 0.01 0.02 0.03 0.03 0.05 0.04 0.03 0.03 0.03 0.03 0.03 0.02 0.02 0.03 0.02 0.02 0.02 0.02 0.02 0.01 0.01 0.01 0.01 0.01 0.02
0.03 0.02 0.02 0.03 0.02 0.02 0.02 0.01 0.01 0.01 0.01 0.02 0.02 0.01 0.01 0.01 0.01 0.01 0.02 0.03 0.04 0.02 0.02 0.03 0.03 0.03 0.02 0.02 0.02 0.02 0.03 0.03 0.02 0.02 0.02 0.02 0.02 0.01 0.01 0.01 0.01 0.01 0.02
0.03 0.03 0.03 0.03 0.02 0.01 0.01 0.01 0.01 0.01 0.01 0.01 0.01 0.01 0.01 0.01 0.01 0.00 0.01 0.01 0.01 0.01 0.02 0.03 0.03 0.02 0.02 0.03 0.03 0.02 0.03 0.03 0.03 0.02 0.02 0.02 0.02 0.01 0.01 0.01 0.01 0.01 0.02
0.02 0.02 0.03 0.03 0.02 0.01 0.01 0.01 0.01 0.02 0.01 0.01 0.01 0.01 0.01 0.01 0.01 0.00 0.00 0.00 0.00 0.01 0.01 0.02 0.02 0.02 0.02 0.03 0.03 0.03 0.03 0.03 0.03 0.02 0.03 0.04 0.04 0.03 0.02 0.01 0.01 0.01 0.02
MSLP
1013.64 1013.85 1013.99 1014.04 1014.00 1013.90 1013.77 1013.64 1013.54 1013.48 1013.44 1013.41 1013.36 1013.24 1013.06 1012.80 1012.47 1012.11 1011.75 1011.43 1011.16 1010.98 1010.90 1010.90 1010.97 1011.11 1011.31 1011.54 1011.82 1012.12 1012.45 1012.78 1013.10 1013.37 1013.57 1013.69 1013.71 1013.64 1013.49 1013.31 1013.13 1012.98 1012.89
1013.34 1013.62 1013.79 1013.85 1013.80 1013.67 1013.51 1013.37 1013.27 1013.24 1013.26 1013.30 1013.32 1013.28 1013.14 1012.90 1012.57 1012.18 1011.77 1011.39 1011.08 1010.84 1010.71 1010.67 1010.71 1010.81 1010.97 1011.18 1011.44 1011.75 1012.09 1012.47 1012.86 1013.22 1013.54 1013.76 1013.89 1013.91 1013.82 1013.66 1013.48 1013.29 1013.15
1013.04 1013.37 1013.59 1013.66 1013.60 1013.45 1013.26 1013.09 1012.98 1012.97 1013.02 1013.12 1013.20 1013.23 1013.15 1012.95 1012.64 1012.24 1011.82 1011.40 1011.05 1010.77 1010.59 1010.50 1010.50 1010.56 1010.67 1010.84 1011.06 1011.36 1011.71 1012.12 1012.57 1013.02 1013.44 1013.78 1014.02 1014.14 1014.14 1014.03 1013.86 1013.67 1013.49
1012.77 1013.16 1013.41 1013.50 1013.44 1013.26 1013.03 1012.83 1012.70 1012.67 1012.74 1012.87 1013.01 1013.08 1013.06 1012.91 1012.63 1012.27 1011.85 1011.43 1011.06 1010.76 1010.55 1010.42 1010.37 1010.38 1010.45 1010.57 1010.75 1011.01 1011.36 1011.78 1012.27 1012.78 1013.29 1013.74 1014.09 1014.31 1014.40 1014.36 1014.23 1014.04 1013.84
1012.57 1012.99 1013.28 1013.38 1013.31 1013.11 1012.85 1012.60 1012.44 1012.38 1012.44 1012.58 1012.73 1012.84 1012.87 1012.76 1012.53 1012.20 1011.82 1011.43 1011.07 1010.77 1010.56 1010.42 1010.34 1010.32 1010.34 1010.41 1010.55 1010.76 1011.08 1011.49 1011.99 1012.55 1013.11 1013.64 1014.08 1014.40 1014.57 1014.61 1014.53 1014.37 1014.17
1012.44 1012.88 1013.18 1013.30 1013.23 1013.01 1012.72 1012.43 1012.21 1012.12 1012.14 1012.25 1012.39 1012.52 1012.56 1012.49 1012.31 1012.04 1011.70 1011.36 1011.04 1010.78 1010.58 1010.45 1010.37 1010.33 1010.32 1010.36 1010.45 1010.62 1010.90 1011.28 1011.76 1012.32 1012.91 1013.48 1013.98 1014.37 1014.63 1014.74 1014.72 1014.61 1014.42
1012.35 1012.79 1013.11 1013.23 1013.16 1012.94 1012.62 1012.29 1012.03 1011.88 1011.84 1011.90 1012.02 1012.12 1012.17 1012.12 1011.98 1011.75 1011.48 1011.19 1010.93 1010.73 1010.58 1010.48 1010.42 1010.38 1010.37 1010.38 1010.44 1010.57 1010.80 1011.13 1011.58 1012.11 1012.69 1013.27 1013.80 1014.24 1014.55 1014.73 1014.78 1014.72 1014.57
1012.29 1012.72 1013.03 1013.16 1013.10 1012.87 1012.54 1012.19 1011.88 1011.68 1011.58 1011.59 1011.64 1011.71 1011.73 1011.68 1011.56 1011.37 1011.14 1010.92 1010.73 1010.59 1010.50 1010.45 1010.43 1010.42 1010.42 1010.43 1010.47 1010.57 1010.75 1011.04 1011.44 1011.92 1012.46 1013.03 1013.56 1014.02 1014.37 1014.61 1014.72 1014.72 1014.63
1012.22 1012.62 1012.92 1013.06 1013.00 1012.79 1012.47 1012.11 1011.78 1011.53 1011.39 1011.33 1011.32 1011.33 1011.31 1011.24 1011.11 1010.94 1010.75 1010.58 1010.44 1010.36 1010.33 1010.34 1010.37 1010.41 1010.43 1010.46 1010.50 1010.59 1010.74 1010.99 1011.33 1011.76 1012.26 1012.79 1013.30 1013.76 1014.13 1014.40 1014.57 1014.63 1014.61
1012.12 1012.50 1012.78 1012.92 1012.88 1012.69 1012.39 1012.05 1011.72 1011.46 1011.28 1011.17 1011.10 1011.05 1010.98 1010.87 1010.72 1010.54 1010.37 1010.22 1010.13 1010.09 1010.11 1010.17 1010.25 1010.33 1010.40 1010.46 1010.52 1010.61 1010.75 1010.97 1011.27 1011.66 1012.10 1012.58 1013.06 1013.50 1013.87 1014.16 1014.37 1014.49 1014.54
1012.00 1012.34 1012.61 1012.74 1012.73 1012.57 1012.31 1012.01 1011.72 1011.46 1011.27 1011.13 1011.02 1010.92 1010.80 1010.64 1010.46 1010.26 1010.08 1009.94 1009.86 1009.85 1009.90 1009.99 1010.11 1010.23 1010.34 1010.43 1010.52 1010.63 1010.78 1010.99 1011.28 1011.63 1012.03 1012.46 1012.89 1013.30 1013.66 1013.95 1014.18 1014.34 1014.44
1011.86 1012.17 1012.42 1012.55 1012.55 1012.44 1012.24 1012.00 1011.75 1011.54 1011.36 1011.22 1011.09 1010.95 1010.79 1010.59 1010.38 1010.15 1009.95 1009.80 1009.72 1009.71 1009.76 1009.87 1010.01 1010.15 1010.29 1010.42 1010.55 1010.68 1010.86 1011.08 1011.35 1011.68 1012.05 1012.44 1012.83 1013.19 1013.52 1013.79 1014.02 1014.20 1014.34
1011.72 1012.00 1012.22 1012.35 1012.37 1012.30 1012.16 1011.99 1011.82 1011.66 1011.52 1011.40 1011.28 1011.13 1010.94 1010.72 1010.48 1010.24 1010.02 1009.85 1009.74 1009.72 1009.76 1009.86 1010.00 1010.15 1010.31 1010.46 1010.62 1010.79 1010.98 1011.22 1011.50 1011.82 1012.16 1012.52 1012.86 1013.18 1013.46 1013.70 1013.90 1014.08 1014.24
1011.59 1011.84 1012.03 1012.15 1012.18 1012.15 1012.07 1011.97 1011.88 1011.79 1011.71 1011.62 1011.52 1011.39 1011.21 1010.99 1010.74 1010.48 1010.25 1010.07 1009.95 1009.90 1009.92 1010.00 1010.11 1010.25 1010.41 1010.57 1010.74 1010.93 1011.15 1011.40 1011.69 1012.00 1012.33 1012.65 1012.95 1013.22 1013.45 1013.65 1013.81 1013.97 1014.12
1011.44 1011.66 1011.83 1011.93 1011.98 1011.98 1011.96 1011.92 1011.89 1011.87 1011.85 1011.81 1011.75 1011.64 1011.49 1011.29 1011.06 1010.82 1010.60 1010.41 1010.28 1010.21 1010.21 1010.26 1010.34 1010.46 1010.60 1010.75 1010.92 1011.12 1011.34 1011.60 1011.89 1012.19 1012.50 1012.79 1013.05 1013.28 1013.46 1013.60 1013.73 1013.85 1013.98
1011.26 1011.45 1011.59 1011.69 1011.75 1011.78 1011.79 1011.81 1011.84 1011.87 1011.89 1011.91 1011.89 1011.82 1011.71 1011.55 1011.36 1011.16 1010.96 1010.80 1010.67 1010.60 1010.57 1010.59 1010.64 1010.72 1010.83 1010.95 1011.11 1011.29 1011.51 1011.76 1012.04 1012.33 1012.61 1012.88 1013.11 1013.29 1013.43 1013.53 1013.62 1013.70 1013.81
1011.01 1011.18 1011.31 1011.41 1011.47 1011.52 1011.57 1011.62 1011.68 1011.75 1011.82 1011.87 1011.88 1011.86 1011.80 1011.69 1011.56 1011.41 1011.26 1011.13 1011.03 1010.96 1010.92 1010.92 1010.93 1010.98 1011.04 1011.14 1011.26 1011.42 1011.62 1011.85 1012.10 1012.37 1012.63 1012.87 1013.07 1013.23 1013.33 1013.41 1013.46 1013.52 1013.60
1010.66 1010.83 1010.96 1011.07 1011.16 1011.23 1011.29 1011.37 1011.45 1011.53 1011.62 1011.68 1011.73 1011.75 1011.73 1011.68 1011.61 1011.52 1011.43 1011.35 1011.28 1011.22 1011.18 1011.16 1011.16 1011.17 1011.20 1011.26 1011.35 1011.48 1011.64 1011.84 1012.07 1012.31 1012.54 1012.76 1012.93 1013.07 1013.16 1013.23 1013.27 1013.32 1013.39
1010.24 1010.41 1010.57 1010.70 1010.80 1010.90 1010.99 1011.07 1011.16 1011.25 1011.33 1011.41 1011.47 1011.51 1011.53 1011.53 1011.52 1011.49 1011.45 1011.41 1011.38 1011.34 1011.31 1011.29 1011.27 1011.26 1011.27 1011.29 1011.36 1011.45 1011.59 1011.76 1011.96 1012.17 1012.37 1012.56 1012.72 1012.85 1012.94 1013.01 1013.06 1013.12 1013.18
1009.75 1009.95 1010.14 1010.30 1010.45 1010.57 1010.68 1010.78 1010.86 1010.95 1011.03 1011.10 1011.16 1011.22 1011.27 1011.31 1011.33 1011.35 1011.36 1011.36 1011.35 1011.33 1011.31 1011.28 1011.26 1011.24 1011.24 1011.25 1011.30 1011.39 1011.50 1011.65 1011.82 1012.00 1012.18 1012.35 1012.50 1012.62 1012.72 1012.79 1012.86 1012.93 1013.02
1009.27 1009.50 1009.72 1009.93 1010.11 1010.27 1010.40 1010.50 1010.60 1010.67 1010.75 1010.82 1010.88 1010.95 1011.02 1011.08 1011.13 1011.18 1011.21 1011.22 1011.23 1011.22 1011.20 1011.17 1011.15 1011.13 1011.14 1011.16 1011.22 1011.31 1011.43 1011.56 1011.72 1011.88 1012.04 1012.18 1012.31 1012.42 1012.52 1012.61 1012.70 1012.80 1012.90
1008.83 1009.08 1009.34 1009.59 1009.81 1010.00 1010.15 1010.27 1010.37 1010.45 1010.52 1010.60 1010.67 1010.75 1010.83 1010.91 1010.97 1011.03 1011.06 1011.07 1011.07 1011.04 1011.01 1010.99 1010.97 1010.97 1011.00 1011.05 1011.14 1011.25 1011.39 1011.54 1011.69 1011.83 1011.97 1012.09 1012.19 1012.29 1012.38 1012.48 1012.58 1012.69 1012.81
1008.49 1008.75 1009.03 1009.30 1009.55 1009.76 1009.93 1010.07 1010.17 1010.27 1010.36 1010.44 1010.54 1010.63 1010.73 1010.82 1010.88 1010.93 1010.95 1010.94 1010.90 1010.86 1010.81 1010.77 1010.76 1010.78 1010.84 1010.93 1011.07 1011.23 1011.40 1011.57 1011.73 1011.87 1011.98 1012.07 1012.15 1012.22 1012.29 1012.38 1012.48 1012.60 1012.73
1008.27 1008.52 1008.79 1009.06 1009.31 1009.52 1009.70 1009.84 1009.97 1010.08 1010.19 1010.31 1010.43 1010.56 1010.68 1010.78 1010.85 1010.88 1010.87 1010.83 1010.75 1010.67 1010.59 1010.53 1010.52 1010.56 1010.65 1010.80 1010.99 1011.20 1011.42 1011.63 1011.80 1011.94 1012.04 1012.10 1012.14 1012.17 1012.21 1012.28 1012.37 1012.48 1012.62
1008.17 1008.38 1008.62 1008.85 1009.07 1009.26 1009.42 1009.56 1009.69 1009.82 1009.97 1010.12 1010.29 1010.45 1010.61 1010.73 1010.80 1010.83 1010.79 1010.71 1010.59 1010.46 1010.34 1010.26 1010.24 1010.29 1010.42 1010.61 1010.85 1011.12 1011.39 1011.64 1011.83 1011.97 1012.05 1012.09 1012.09 1012.08 1012.08 1012.12 1012.18 1012.29 1012.42
1008.20 1008.33 1008.48 1008.65 1008.80 1008.93 1009.06 1009.17 1009.30 1009.45 1009.62 1009.81 1010.03 1010.24 1010.44 1010.59 1010.69 1010.71 1010.66 1010.54 1010.38 1010.21 1010.05 1009.94 1009.90 1009.96 1010.10 1010.32 1010.60 1010.92 1011.23 1011.50 1011.72 1011.86 1011.93 1011.94 1011.91 1011.86 1011.83 1011.83 1011.88 1011.97 1012.11
Thickness
5735 5735 5734 5733 5731 5728 5726 5725 5723 5723 5723 5720 5718 5715 5714 5715 5715 5716 5715 5714 5712 5712 5710 5709 5707 5706 5704 5703 5703 5701 5699 5697 5697 5694 5691 5693 5695 5696 5696 5697 5696 5695 5694
5729 5729 5728 5728 5726 5724 5723 5722 5721 5720 5720 5718 5716 5714 5712 5712 5712 5712 5712 5710 5709 5708 5708 5706 5704 5702 5701 5700 5699 5698 5694 5693 5693 5689 5684 5680 5682 5687 5692 5691 5691 5690 5690
5727 5726 5724 5723 5721 5720 5719 5719 5717 5716 5716 5715 5713 5711 5709 5707 5706 5706 5706 5707 5706 5705 5704 5702 5701 5700 5698 5696 5695 5694 5691 5687 5687 5687 5683 5676 5674 5677 5682 5685 5686 5686 5686
5726 5724 5721 5719 5718 5718 5718 5715 5714 5713 5712 5712 5709 5707 5704 5702 5702 5702 5703 5703 5702 5702 5701 5700 5699 5697 5695 5693 5692 5691 5689 5686 5682 5682 5682 5680 5678 5673 5672 5676 5679 5681 5680
5724 5722 5720 5718 5717 5717 5715 5713 5711 5710 5709 5708 5707 5705 5703 5702 5701 5700 5699 5699 5698 5699 5698 5697 5695 5693 5691 5689 5688 5687 5685 5683 5680 5678 5677 5675 5673 5672 5668 5665 5669 5672 5675
5722 5720 5719 5717 5714 5714 5712 5710 5708 5707 5707 5706 5704 5703 5701 5700 5698 5697 5695 5694 5694 5695 5694 5693 5692 5690 5688 5686 5684 5683 5682 5680 5678 5676 5674 5672 5669 5667 5664 5661 5661 5662 5666
5719 5716 5714 5712 5710 5708 5707 5706 5705 5703 5704 5703 5702 5700 5700 5698 5696 5695 5693 5691 5691 5690 5690 5690 5688 5686 5684 5683 5681 5679 5677 5676 5674 5672 5671 5669 5667 5666 5663 5659 5656 5656 5658
5716 5714 5713 5711 5708 5705 5704 5703 5702 5701 5701 5700 5699 5698 5697 5696 5694 5693 5691 5690 5689 5689 5689 5687 5685 5683 5681 5679 5677 5675 5674 5673 5671 5670 5668 5666 5665 5663 5661 5658 5654 5650 5650
5712 5712 5710 5709 5706 5703 5702 5702 5701 5699 5699 5698 5697 5695 5694 5694 5692 5691 5689 5687 5687 5686 5685 5684 5682 5680 5677 5675 5673 5671 5670 5669 5667 5666 5665 5663 5662 5660 5659 5657 5654 5648 5644
5710 5710 5708 5707 5705 5704 5702 5701 5699 5697 5697 5696 5695 5694 5692 5692 5690 5688 5686 5684 5683 5682 5681 5679 5678 5676 5674 5672 5669 5667 5666 5664 5662 5661 5660 5659 5658 5656 5655 5653 5651 5649 5645
5709 5708 5707 5706 5704 5703 5701 5699 5697 5696 5695 5694 5693 5691 5690 5689 5688 5686 5684 5682 5680 5679 5677 5675 5673 5671 5669 5667 5665 5663 5661 5659 5658 5657 5656 5654 5653 5652 5651 5649 5647 5646 5644
5710 5708 5706 5704 5702 5701 5699 5698 5696 5695 5694 5693 5691 5689 5687 5686 5684 5682 5681 5679 5678 5676 5674 5672 5670 5668 5666 5663 5661 5659 5657 5655 5653 5652 5651 5650 5650 5648 5647 5645 5643 5642 5641
5707 5706 5704 5702 5701 5699 5698 5696 5694 5693 5693 5692 5689 5687 5684 5683 5681 5680 5678 5676 5675 5672 5671 5669 5667 5665 5663 5660 5659 5656 5654 5652 5651 5649 5648 5647 5646 5644 5642 5641 5639 5639 5639
5706 5704 5702 5701 5700 5698 5697 5695 5693 5692 5691 5689 5687 5684 5682 5681 5679 5677 5676 5674 5672 5670 5668 5666 5664 5662 5660 5658 5656 5654 5652 5649 5648 5647 5646 5644 5643 5641 5639 5638 5636 5635 5633
5703 5703 5701 5699 5698 5696 5694 5694 5692 5691 5690 5687 5685 5682 5680 5678 5676 5674 5673 5671 5669 5667 5665 5662 5661 5659 5658 5656 5654 5652 5650 5647 5645 5644 5643 5642 5641 5640 5638 5636 5634 5633 5630
5703 5703 5701 5699 5697 5695 5694 5692 5691 5690 5688 5685 5683 5681 5678 5676 5673 5672 5670 5668 5665 5664 5662 5660 5658 5656 5656 5654 5653 5651 5648 5646 5644 5642 5640 5640 5638 5637 5636 5635 5634 5632 5629
5703 5701 5700 5699 5697 5696 5694 5692 5691 5689 5686 5684 5681 5679 5677 5674 5672 5670 5667 5664 5662 5660 5658 5657 5655 5654 5653 5653 5651 5649 5646 5644 5642 5640 5638 5638 5637 5635 5633 5633 5632 5631 5630
5702 5701 5699 5698 5697 5696 5694 5692 5689 5686 5683 5681 5679 5677 5675 5672 5669 5667 5664 5662 5660 5658 5656 5654 5654 5652 5652 5651 5650 5648 5645 5643 5641 5639 5638 5635 5634 5633 5631 5630 5628 5627 5626
5702 5701 5699 5698 5696 5694 5692 5689 5686 5684 5681 5678 5677 5675 5673 5669 5666 5664 5662 5660 5657 5655 5654 5653 5652 5651 5650 5649 5647 5645 5642 5640 5639 5638 5637 5635 5633 5632 5630 5627 5625 5623 5623
5700 5698 5697 5695 5693 5691 5689 5686 5683 5680 5678 5677 5675 5673 5671 5667 5664 5662 5660 5658 5655 5654 5653 5652 5651 5650 5649 5648 5645 5643 5640 5637 5637 5636 5635 5634 5632 5631 5628 5625 5622 5620 5619
5698 5696 5693 5690 5689 5689 5686 5682 5680 5678 5678 5676 5674 5671 5668 5666 5663 5660 5658 5656 5654 5653 5651 5650 5650 5648 5647 5646 5644 5641 5638 5635 5634 5633 5632 5632 5631 5629 5627 5624 5621 5620 5618
5693 5692 5689 5687 5687 5686 5683 5679 5677 5677 5676 5674 5671 5668 5666 5665 5663 5659 5656 5654 5652 5649 5648 5647 5646 5646 5645 5643 5642 5640 5637 5635 5632 5631 5631 5630 5628 5627 5625 5623 5621 5619 5616
5689 5688 5686 5684 5683 5682 5680 5676 5676 5675 5673 5670 5667 5665 5664 5662 5660 5657 5654 5651 5649 5647 5646 5644 5643 5643 5642 5641 5640 5638 5636 5634 5631 5630 5628 5627 5626 5624 5623 5622 5620 5617 5612
5684 5683 5681 5679 5678 5678 5677 5676 5676 5673 5670 5666 5664 5662 5660 5658 5657 5655 5653 5650 5647 5646 5645 5643 5642 5641 5639 5638 5637 5635 5633 5631 5629 5627 5626 5625 5623 5622 5621 5619 5617 5615 5611
5678 5678 5677 5675 5675 5675 5674 5674 5673 5670 5666 5664 5662 5660 5658 5656 5654 5652 5651 5650 5649 5648 5646 5644 5642 5639 5638 5638 5637 5633 5631 5629 5627 5625 5623 5621 5619 5618 5617 5616 5615 5613 5610
5673 5672 5672 5672 5672 5672 5671 5671 5670 5667 5663 5660 5659 5657 5655 5653 5651 5649 5649 5650 5650 5650 5648 5646 5644 5642 5641 5640 5636 5633 5631 5628 5626 5622 5619 5618 5617 5616 5615 5614 5612 5611 5609